{"data":{"norad_id":42839,"epoch":"2026-09-19T23:24:26.134272Z","epoch_age_seconds":59569,"freshness":"FRESH","line1":"1 42839U 17042Q   26262.97530248  .00012724  00000+0  43477-3 0  9999","line2":"2 42839  97.4126  83.2011 0006730  28.2997 331.8608 15.30405555502655","mean_motion":15.30405555,"eccentricity":0.000673,"inclination_deg":97.4126,"raan_deg":83.2011,"arg_perigee_deg":28.2997,"mean_anomaly_deg":331.8608,"bstar":0.00043477,"rev_number":50265,"period_min":94.092706034382,"perigee_km":469.98949500287,"apogee_km":479.21328087304,"semimajor_km":6852.738387938,"source":"CELESTRAK","updated_at":"2026-09-20T09:00:34.867733Z"}}